DW9556 Weather Reports


Display with metric or nautical units.
time (UTC)temp
F
wind
direction
speed
MPH
gust
MPH
rain 1hr
in
rain 24hr
in
rain mn
in
humidity
%
barometer
mb
20260906114610 68 54 0.0 0.0 0.00 0.00 0.00 77 1015.8
20260906113057 69 52 0.0 0.0 0.00 0.00 0.00 78 1015.6
20260906111533 69 53 0.0 0.0 0.00 0.00 0.00 78 1015.5
20260906110031 69 53 0.0 0.0 0.00 0.00 0.00 78 1015.2
20260906104513 69 22 0.0 0.0 0.00 0.00 0.00 79 1015.0
20260906103009 70 22 0.0 0.0 0.00 0.00 0.00 79 1014.9
20260906101552 70 22 0.0 0.0 0.00 0.00 0.00 79 1014.7
20260906100048 70 21 0.0 0.0 0.00 0.00 0.00 79 1014.7
20260906094532 70 11 0.0 0.0 0.00 0.00 0.00 79 1014.5
20260906093027 71 9 0.0 0.0 0.00 0.00 0.00 80 1014.4
20260906091520 71 76 0.0 0.0 0.00 0.00 0.00 80 1014.3
20260906090007 71 72 0.0 0.0 0.00 0.00 0.00 80 1014.4
20260906084547 72 84 0.0 0.0 0.00 0.00 0.00 80 1014.3
20260906083048 72 84 0.0 0.0 0.00 0.00 0.00 80 1014.4
20260906081538 72 59 0.0 0.0 0.00 0.00 0.00 80 1014.4
20260906080025 72 13 0.0 0.0 0.00 0.00 0.00 80 1014.5
20260906074510 73 340 0.0 0.0 0.00 0.00 0.00 80 1014.4
20260906073006 73 304 0.0 0.0 0.00 0.00 0.00 80 1014.4
20260906071548 73 76 0.0 0.0 0.00 0.00 0.00 80 1014.6
20260906070048 73 9 0.0 0.0 0.00 0.00 0.00 80 1014.6
20260906064530 73 351 0.0 0.0 0.00 0.00 0.00 80 1014.7
20260906063029 73 14 0.0 0.0 0.00 0.00 0.00 80 1014.6
20260906061511 73 346 0.0 0.0 0.00 0.00 0.00 80 1014.5
20260906060016 73 13 0.0 0.0 0.00 0.00 0.00 80 1014.4
20260906054551 73 35 0.0 0.0 0.00 0.00 0.00 80 1014.5
20260906053050 73 342 0.0 0.0 0.00 0.00 0.00 80 1014.4
20260906051532 73 321 0.0 0.0 0.00 0.00 0.00 79 1014.3
20260906050040 73 329 0.0 0.0 0.00 0.00 0.00 79 1014.1
20260906044518 74 347 0.0 0.0 0.00 0.00 0.00 79 1013.8
20260906043010 74 16 0.0 0.0 0.00 0.00 0.00 79 1013.7
20260906041552 73 71 0.0 0.0 0.00 0.00 0.00 79 1013.7
20260906040051 73 71 0.0 0.0 0.00 0.00 0.00 79 1013.6
20260906034534 73 65 0.0 0.0 0.00 0.00 0.00 79 1013.6
20260906033044 73 105 0.0 0.0 0.00 0.00 0.00 79 1013.6
20260906031515 73 304 0.0 0.0 0.00 0.00 0.00 79 1013.7
20260906030015 73 71 0.0 0.0 0.00 0.00 0.00 78 1013.7
20260906024556 73 254 0.0 0.0 0.00 0.00 0.00 78 1013.6
20260906023055 74 88 0.0 0.0 0.00 0.00 0.00 79 1013.5
20260906021535 74 99 0.0 0.0 0.00 0.00 0.00 79 1013.4
20260906020033 74 101 0.0 0.0 0.00 0.00 0.00 79 1013.1
20260906014513 75 99 0.0 0.0 0.00 0.00 0.00 78 1013.1
20260906013013 76 90 0.0 0.0 0.00 0.00 0.00 78 1012.9
20260906011551 77 105 0.0 0.0 0.00 0.00 0.00 77 1012.8
20260906010050 77 31 0.0 0.0 0.00 0.00 0.00 76 1012.7
20260906004531 78 53 0.0 0.0 0.00 0.00 0.00 75 1012.6
20260906003031 79 335 0.0 0.0 0.00 0.00 0.00 75 1012.6
20260906001511 80 76 0.0 0.0 0.00 0.00 0.00 74 1012.3
20260906000010 80 14 0.0 0.0 0.00 0.00 0.00 74 1012.1
20260905234553 81 103 0.0 0.0 0.00 0.00 0.00 73 1012.0
20260905233051 81 120 0.0 0.0 0.00 0.00 0.00 72 1012.1
20260905231533 82 82 0.0 0.0 0.00 0.00 0.00 71 1012.0
20260905230036 83 30 0.0 0.0 0.00 0.00 0.00 71 1011.9
20260905224520 84 123 0.0 0.0 0.00 0.00 0.00 70 1011.6
20260905223014 85 9 0.0 0.0 0.00 0.00 0.00 69 1011.7
20260905221614 86 327 0.0 0.0 0.00 0.00 0.00 68 1011.3
20260905220106 86 100 0.0 0.0 0.00 0.00 0.00 67 1011.3
20260905214556 87 67 0.0 0.0 0.00 0.00 0.00 66 1011.3
20260905213038 88 317 0.0 0.0 0.00 0.00 0.00 65 1011.0
20260905211537 89 96 0.0 0.0 0.00 0.00 0.00 64 1010.9
20260905210019 90 107 0.0 0.0 0.00 0.00 0.00 63 1010.8
20260905204520 90 326 0.0 0.0 0.00 0.00 0.00 62 1010.9
20260905203001 90 321 0.0 0.0 0.00 0.00 0.00 63 1011.1
20260905201601 90 336 0.0 0.0 0.00 0.00 0.00 64 1010.9
20260905201500 90 309 0.0 0.0 0.00 0.00 0.00 64 1011.0
20260905200053 91 28 0.0 0.0 0.00 0.00 0.00 64 1010.9
20260905194542 91 344 0.0 0.0 0.00 0.00 0.00 63 1010.9
20260905193029 91 324 0.0 0.0 0.00 0.00 0.00 65 1011.0
20260905191529 91 333 0.0 0.0 0.00 0.00 0.00 64 1011.1
20260905190028 91 338 0.0 0.0 0.00 0.00 0.00 64 1011.2
20260905184531 91 342 0.0 0.0 0.00 0.00 0.00 64 1011.4
20260905183025 90 74 0.0 0.0 0.00 0.00 0.00 66 1011.5
20260905181526 90 325 0.0 0.0 0.00 0.00 0.00 67 1011.6
20260905180026 89 48 0.0 0.0 0.00 0.00 0.00 68 1011.5
20260905174534 89 335 0.0 0.0 0.00 0.00 0.00 69 1011.6
20260905173027 90 342 0.0 0.0 0.00 0.00 0.00 68 1011.7
20260905171535 91 343 0.0 0.0 0.00 0.00 0.00 67 1011.7
20260905170003 90 336 0.0 0.0 0.00 0.00 0.00 68 1011.8
20260905164602 90 115 0.0 0.0 0.00 0.00 0.00 68 1011.9
20260905163040 89 293 0.0 0.0 0.00 0.00 0.00 70 1011.9
20260905161537 89 291 0.0 0.0 0.00 0.00 0.00 69 1011.9
20260905160026 89 305 0.0 0.0 0.00 0.00 0.00 70 1011.7
20260905154516 88 328 0.0 0.0 0.00 0.00 0.00 71 1011.8
20260905153057 88 336 0.0 0.0 0.00 0.00 0.00 73 1011.7
20260905151603 87 112 0.0 0.0 0.00 0.00 0.00 74 1011.5
20260905150037 87 82 0.0 0.0 0.00 0.00 0.00 73 1011.5
20260905144534 86 84 0.0 0.0 0.00 0.00 0.00 75 1011.5
20260905143014 85 350 0.0 0.0 0.00 0.00 0.00 75 1011.4
20260905141511 84 337 0.0 0.0 0.00 0.00 0.00 76 1011.3
20260905140050 83 341 0.0 0.0 0.00 0.00 0.00 77 1011.1
20260905134546 82 290 0.0 0.0 0.00 0.00 0.00 77 1011.4
20260905133025 82 355 0.0 0.0 0.00 0.00 0.00 77 1011.6
20260905131521 81 184 0.0 0.0 0.00 0.00 0.00 78 1011.3
20260905130101 80 277 0.0 0.0 0.00 0.00 0.00 78 1011.1
20260905124558 79 278 0.0 0.0 0.00 0.00 0.00 79 1011.2
20260905123038 78 278 0.0 0.0 0.00 0.00 0.00 79 1011.2
20260905121536 77 278 0.0 0.0 0.00 0.00 0.00 79 1011.0
20260905120018 76 278 0.0 0.0 0.00 0.00 0.00 79 1010.8